Shreveport, LA

9:03 AM CDT on August 17, 2017 (GMT -0500)
Shreveport Regional

Weather History for KSHV - March, 2014

Change the Weather History Date:

Monday, March 17, 2014

  Actual Average Record
Temperature  
Mean Temperature 48 °F 58 °F  
Max Temperature 57 °F 70 °F 88 °F (1908)
Min Temperature 38 °F 47 °F 27 °F (1892)
Degree Days  
Heating Degree Days 17 8  
Month to date heating degree days 236 162  
Since 1 July heating degree days 2347 2044  
Cooling Degree Days 0 1  
Month to date cooling degree days 2 15  
Year to date cooling degree days 8 25  
Moisture  
Dew Point 35 °F    
Average Humidity 66    
Maximum Humidity 85    
Minimum Humidity 47    
Precipitation  
Precipitation T in 0.12 in 1.87 in (1884)
Month to date precipitation 1.62 2.29  
Year to date precipitation 5.06 11.24  
Snow  
Snow 0.00 in - - ()
Month to date snowfall T  
Since 1 July snowfall 1.0  
Snow Depth 0.00 in    
Sea Level Pressure  
Sea Level Pressure 29.91 in    
Wind  
Wind Speed 7 mph (NNE)    
Max Wind Speed 23 mph    
Max Gust Speed 28 mph    
Visibility 10 miles    
Events Rain    
T = Trace of Precipitation, MM = Missing Value Source: NWS Daily Summary

Daily Weather History Graph

Daily Weather History Graph

Search for Another Location

Airport or City:

Trip Planner

Search our weather history database for the weather conditions in past years. The results will help you decide how hot, cold, wet, or windy it might be!

Date:

Astronomy

Mar. 17, 2014 Rise Set
Actual Time 7:22 AM CDT 7:24 PM CDT
Civil Twilight 6:58 AM CDT 7:49 PM CDT
Nautical Twilight 6:29 AM CDT 8:17 PM CDT
Astronomical Twilight 6:01 AM CDT 8:46 PM CDT
Moon 8:36 PM CDT 7:43 AM CDT
Length of Visible Light 12h 50m
Length of Day
12h 01m
Full, 99% of the Moon is Illuminated
Mar 17
Full
Mar 23
Last Quarter
Mar 30
New
Apr 7
First Quarter
Apr 15
Full

Hourly Weather History & Observations

Time (CDT) Temp. Windchill Dew Point Humidity Pressure Visibility Wind Dir Wind Speed Gust Speed Precip Events Conditions
12:56 AM 39.9 °F 32.1 °F 34.0 °F 79% 29.95 in 10.0 mi North 13.8 mph - 0.00 in Rain Light Rain
1:56 AM 39.9 °F 32.1 °F 34.0 °F 79% 29.94 in 10.0 mi NNW 13.8 mph - 0.00 in   Overcast
2:05 AM 39.2 °F 32.0 °F 35.6 °F 87% 29.94 in 9.0 mi North 11.5 mph - 0.00 in Rain Light Rain
2:36 AM 39.2 °F 30.2 °F 32.0 °F 75% 29.94 in 10.0 mi North 17.3 mph 27.6 mph 0.00 in   Overcast
2:56 AM 39.0 °F 30.6 °F 30.9 °F 73% 29.95 in 10.0 mi North 15.0 mph 24.2 mph 0.00 in   Overcast
3:52 AM 39.2 °F 30.5 °F 30.2 °F 70% 29.95 in 10.0 mi North 16.1 mph 23.0 mph 0.00 in   Overcast
3:56 AM 39.0 °F 31.0 °F 30.9 °F 73% 29.95 in 10.0 mi NNE 13.8 mph 23.0 mph 0.00 in   Overcast
4:23 AM 37.4 °F 29.8 °F 32.0 °F 81% 29.94 in 10.0 mi NNE 11.5 mph 20.7 mph N/A   Overcast
4:56 AM 37.9 °F 32.1 °F 32.0 °F 79% 29.94 in 10.0 mi NNE 8.1 mph - N/A   Overcast
5:56 AM 37.9 °F 32.7 °F 33.1 °F 83% 29.92 in 10.0 mi NNE 6.9 mph - N/A   Overcast
6:56 AM 37.9 °F 30.9 °F 30.9 °F 76% 29.95 in 10.0 mi North 10.4 mph - N/A   Overcast
7:56 AM 37.9 °F 30.9 °F 32.0 °F 79% 29.95 in 10.0 mi NNW 10.4 mph - N/A   Overcast
8:56 AM 39.0 °F 33.4 °F 32.0 °F 76% 29.96 in 10.0 mi North 8.1 mph - N/A   Overcast
9:56 AM 39.9 °F 35.8 °F 33.1 °F 77% 29.96 in 10.0 mi Variable 5.8 mph - N/A   Overcast
10:56 AM 41.0 °F 35.8 °F 34.0 °F 76% 29.96 in 10.0 mi NNW 8.1 mph - N/A   Overcast
11:56 AM 43.0 °F 38.2 °F 34.0 °F 71% 29.96 in 10.0 mi NNW 8.1 mph - N/A   Overcast
12:56 PM 46.0 °F 43.1 °F 34.0 °F 63% 29.94 in 10.0 mi North 5.8 mph - N/A   Overcast
1:56 PM 48.0 °F - 35.1 °F 61% 29.91 in 10.0 mi Variable 5.8 mph - N/A   Overcast
2:56 PM 51.1 °F - 37.0 °F 59% 29.87 in 10.0 mi NNW 8.1 mph - N/A   Partly Cloudy
3:56 PM 55.0 °F - 37.9 °F 53% 29.85 in 10.0 mi North 8.1 mph - N/A   Clear
4:56 PM 57.0 °F - 37.9 °F 49% 29.83 in 10.0 mi Variable 4.6 mph - N/A   Clear
5:56 PM 57.0 °F - 37.9 °F 49% 29.82 in 10.0 mi Calm Calm - N/A   Clear
6:56 PM 54.0 °F - 39.0 °F 57% 29.83 in 10.0 mi Calm Calm - N/A   Partly Cloudy
7:56 PM 48.9 °F - 39.0 °F 69% 29.81 in 10.0 mi ESE 4.6 mph - N/A   Scattered Clouds
8:56 PM 46.9 °F - 39.0 °F 74% 29.82 in 10.0 mi SSE 3.5 mph - N/A   Scattered Clouds
9:56 PM 45.0 °F - 37.9 °F 76% 29.83 in 10.0 mi Calm Calm - N/A   Scattered Clouds
10:56 PM 45.0 °F 43.5 °F 37.9 °F 76% 29.84 in 10.0 mi SE 3.5 mph - N/A   Scattered Clouds
11:56 PM 44.1 °F 40.8 °F 37.9 °F 79% 29.83 in 10.0 mi SE 5.8 mph - N/A   Scattered Clouds